Regional Weather Roundup
Issued by NWS Newport/Morehead, NC

Current Version | Previous Version | Text Only | Print | Product List | Glossary Off
Versions: 1 2 3 4 5 6 7 8 9 10 11 12 13 14 15 16 17 18 19 20 21 22 23 24 25 26 27 28 29 30 31 32 33 34 35 36 37 38 39 40 41 42 43 44 45 46 47 48 49 50

000
ASUS42 KMHX 050912
RWRMHX
WEATHER ROUNDUP FOR EASTERN NORTH CAROLINA
NATIONAL WEATHER SERVICE NEWPORT/MOREHEAD CITY NC
500 AM EDT TUE MAY 05 2015

NOTE: "FAIR" INDICATES FEW OR NO CLOUDS BELOW 12,000 FEET
WITH NO SIGNIFICANT WEATHER AND/OR OBSTRUCTIONS TO VISIBILITY

NCZ015>017-031-032-045>047-102-103-051000-
NORTH COAST

CITY           SKY/WX    TMP DP  RH WIND       PRES   REMARKS
EDENTON        CLEAR     60  55  82 SW5       30.33S
ELIZABETH CITY PTCLDY    58  53  84 SW5       30.32S
KITTY HAWK     SUNNY     61  53  75 SW5       30.32S
MANTEO         CLEAR     60  53  79 SW3       30.33F

$$

NCZ045>047-081-094-103-104-051000-
CENTRAL COAST

CITY           SKY/WX    TMP DP  RH WIND       PRES   REMARKS
FRISCO         CLEAR     60  57  89 SW5       30.34S
SWANQUARTER      N/A     63 N/A N/A SW5       30.30S

$$

NCZ095-097-098-100-101-051000-
SOUTHERN COAST

CITY           SKY/WX    TMP DP  RH WIND       PRES   REMARKS
BEAUFORT       CLEAR     56  55  97 SE3       30.34R
CEDAR ISLAND     N/A     61 N/A N/A S5        30.39R
JACKSONVILLE   CLEAR     54  52  93 CALM      30.33S
PINEY ISLAND   SUNNY    N/A N/A N/A S5        30.34R
WILMINGTON     CLEAR     54  52  93 CALM      30.33S


$$

NCZ011>013-027>030-043-044-078>080-089-090>093-098-051000-
COASTAL PLAIN

CITY           SKY/WX    TMP DP  RH WIND       PRES   REMARKS
AHOSKIE        CLEAR     56  50  79 CALM      30.32S
CLINTON        CLEAR     54  53  99 CALM      30.34S
ELIZABETHTOWN  CLEAR     54  54  99 CALM      30.33R
GOLDSBORO      CLEAR     54  51  87 CALM      30.31S
GREENVILLE     CLEAR     54  52  94 CALM      30.33S
HAVELOCK       CLEAR     51  48  89 CALM        N/A
KENANSVILLE    CLEAR     50  49  96 CALM      30.34S
KINSTON        CLEAR     54  53  97 CALM      30.34S
NEW BERN       CLEAR     53  50  89 CALM      30.35R
RICHLANDS      CLEAR     50  45  81 CALM      30.34S
ROCKY MOUNT    CLEAR     56  52  86 CALM      30.32S
WASHINGTON     CLEAR     55  53  93 CALM      30.34R
WHITEVILLE     CLEAR     54  52  94 CALM      30.33R

$$

AMZ130-135-150-152-154-156-158-170-250-252-270-ANZ085-086-088-633-658-670-051000-
MARINE OBSERVATIONS

STATION/POSITION TIME  TEMP    WIND        PRES    WAVE   SWELL
                       AIR SEA DIR/SP/G            HT/PER HT/PER
                 (UTC) (F)     (DEG/KT/KT) (MB)    (FT/S) (FT/S)
CHESAPEAKE LIGHT 0900   63     230/ 18/ 19 1026.2
64 E VA BEACH    0850   61 60  230/ 12/ 14 1026.2    3/11   3/11
DUCK             0800   64 53  230/ 10/ 12 1025.8
2 E DUCK         0811      56                N/A     2/ 9   2/11
OREGON INLET     0800   66 67  210/  7/  8 1027.0
13E OREGON INLT  0900      60                N/A     3/ 8   2/12
HATTERAS CG      0800   66 64  210/  5/  6 1026.8
DIAMOND BUOY     0850   73 77  190/ 12/ 14 1027.3    3/ 9   2/ 9
CAPE LOOKOUT     0900   66     170/  2/  3 1026.9
BEAUFORT LAB     0800   65 67  160/  3/  4 1026.2
27 SE WRIGHTSVLE 0800   69 71  150/ 10/ 12   N/A
5 SE WRIGHTSVLE  0808   69 68  160/  6/  8 1026.8
225 S CAPE HAT   0850   68 70   80/ 14/ 16 1026.1    5/ 9   3/ 9
41 SE CHARLESTON 0850   72 73   90/ 12/ 14 1024.9    4/ 6   3/ 6

$$


USA.gov is the U.S. government's official web portal to all federal, state and local government web resources and services.